SCP
0 0 0 0 0 0 0 0 0 0 0 0 0 0 0 0 0 0 0 0 0 0 0 0 0 0 0 0 0 0 0 0 0 0 0 0 0 0
0 0 0 0 0 0 0 0 0 0 0 0 0 0 0 0 0 0 0 0 0 0 0 0 0 0 0 0 0 0 0 0 0 0 0 0 0 0
0 0 0 0 0 0 0 0 0 0 0 0 0 0 0 0 0 0 0 0 0 0 0 0 0 0 0 0 0 0 0 0 0 0 0 0 0 0
0 0 0 0 0 0 0 0 0 0 0 0 0 0 0 0 0 0 0 0 0 0 0 0 0 0 0 0 0 0 0 0 0 0 0 0 0 0
0 0 0 0 0 0 0 0 0 0 0 0 0 0 0 0 0 0 0 0 0 0 0 0 0 0 0 0 0 0 0 0 0 0 0 0 0 0
0 0 0 0 0 0 0 0 0 0 0 0 0 0 0 0 0 0 0 0 0 0 0 0 0 0 0 0 0 0 0 0 0 0 0 0 0 0
0 0 0 0 0 0 0 0 0 0 0 0 0 0 0 0 0 0 0 0 0 0 0 0 0 0 0 0 0 0 0 0 0 0 0 0 0 0
0 0 0 0 0 0 0 0 0 0 0 0 0 0 0 0 0 0 0 0 0 0 0 0 0 0 0 0 0 0 0 0 0 0 0 0 0 0
0 0 0 0 0 0 0 0 0 0 0 0 0 0 0 0 0 0 0 0 0 0 0 0 0 0 0 0 0 0 0 0 0 0 0 0 0 0
0 0 0 0 0 0 0 0 0 0 0 0 0 0 0 0 0 0 0 0 0 0 0 0 0 0 0 0 0 0 0 0 0 0 0 0 0 0
0 0 0 0 0 0 0 0 0 0 0 0 0 0 0 0 0 0 0 0 0 0 0 0 0 0 0 0 0 0 0 0 0 0 0 0 0 0
0 0 0 0 0 0 0 0 0 0 0 0 0 0 0 0 0 0 0 0 0 0 0 0 0 0 0 0 0 0 0 0 0 0 0 0 0 0
0 0 0 0 0 0 0 0 0 0 0 0 0 0 0 0 0 0 0 0 0 0 0 0 0 0 0 0 0 0 0 0 0 0 0 0 0 0
0 0 0 0 0 0 0 0 0 0 0 0 0 0 0 0 0 0 0 0 0 0 0 0 0 0 0 0 0 0 0 0 0 0 0 0 0 0
0 0 0 0 0 0 0 0 0 0 0 0 0 0 0 0 0 0 0 0 0 0 0 0 0 0 0 0 0 0 0 0 0 0 0 0 0 0
0 0 0 0 0 0 0 0 0 0 0 0 0 0 0 0 0 0 0 0 0 0 0 0 0 0 0 0 0 0 0 0 0 0 0 0 0 0
0 0 0 0 0 0 0 0 0 0 0 0 0 0 0 0 0 0 0 0 0 0 0 0 0 0 0 0 0 0 0 0 0 0 0 0 0 0
0 0 0 0 0 0 0 0 0 0 0 0 0 0 0 0 0 0 0 0 0 0 0 0 0 0 0 0 0 0 0 0 0 0 0 0 0 0
0 0 0 0 0 0 0 0 0 0 0 0 0 0 0 0 0 0 0 0 0 0 0 0 0 0 0 0 0 0 0 0 0 0 0 0 0 0
0 0 0 0 0 0 0 0 0 0 0 0 0 0 0 0 0 0 0 0 0 0 0 0 0 0 0 0 0 0 0 0 0 0 0 0 0 0
0 0 0 0 0 0 0 0 0 0 0 0 0 0 0 0 0 0 0 0 0 0 0 0 0 0 0 0 0 0 0 0 0 0 0 0 0 0
0 0 0 0 0 0 0 0 0 0 0 0 0 0 0 0 0 0 0 0 0 0 0 0 0 0 0 0 0 0 0 0 0 0 0 0 0 0
0 0 0 0 0 0 0 0 0 0 0 0 0 0 0 0 0 0 0 0 0 0 0 0 0 0 0 0 0 0 0 0 0 0 0 0 0 0
Wind_Speed
4 5 5 5 5 6 7 8 10 14 14 12 8 9 11 12 16 16 18 23 28 30 31 32 32 32 32 32 32 32 32 32 32 33 33 33 34 34
4 6 6 6 6 7 7 8 10 13 16 11 13 14 15 13 18 18 18 26 27 28 29 30 31 32 32 32 32 32 32 32 32 32 33 33 34 34
5 6 7 8 7 7 8 9 10 12 16 15 13 15 18 18 16 16 16 17 16 25 28 30 31 31 32 32 32 32 32 32 32 32 33 33 33 34
7 8 8 7 10 9 9 10 11 12 15 19 16 15 19 19 18 18 15 14 15 22 28 29 30 31 31 31 31 32 32 32 32 32 33 33 33 34
8 8 9 10 11 10 11 12 11 12 13 16 17 15 15 15 18 17 17 15 15 17 23 25 27 29 30 31 32 32 31 31 31 31 32 32 33 33
8 9 10 11 12 13 12 13 13 14 14 15 15 15 15 16 15 15 15 13 13 14 18 19 23 27 28 30 30 30 30 30 30 30 31 31 32 32
9 9 10 12 15 14 12 14 14 13 14 14 15 15 15 15 14 14 15 15 15 14 14 13 15 15 17 22 25 26 28 29 29 30 30 31 31 32
10 10 11 12 14 18 20 21 20 18 17 15 15 16 19 17 15 14 15 16 16 12 14 16 14 16 15 14 22 29 30 30 30 30 30 31 31 32
11 11 10 11 16 13 17 21 21 22 22 18 18 18 19 17 18 19 17 17 17 16 16 17 15 16 14 15 27 30 31 30 30 30 30 30 30 31
11 12 13 13 13 16 17 17 17 17 18 15 15 17 17 18 17 17 18 18 17 14 14 17 16 16 15 15 24 29 29 28 28 29 29 29 30 31
11 12 13 14 18 21 18 17 18 16 16 19 22 24 27 27 21 13 13 13 15 14 12 12 13 15 15 15 16 22 25 27 28 29 29 29 29 29
11 12 15 16 20 23 18 17 18 16 15 17 18 18 17 17 19 13 11 12 13 11 8 8 11 12 12 9 11 13 16 22 27 27 28 28 29 19
11 10 10 18 22 24 22 16 17 18 16 15 14 13 12 11 11 10 10 10 12 13 11 10 11 11 11 13 13 14 14 14 15 18 22 26 27 23
11 10 12 22 24 24 18 17 21 19 11 11 11 11 11 11 11 12 14 13 14 17 17 15 12 13 14 17 16 14 13 14 14 14 13 19 22 25
11 17 21 23 21 16 16 19 17 10 9 10 11 11 11 12 12 12 13 13 15 16 15 16 15 14 14 15 16 16 17 16 12 12 13 14 13 12
11 16 20 19 15 15 15 12 9 9 10 10 11 12 12 11 11 11 11 11 12 13 11 12 13 15 14 17 16 16 15 12 13 15 14 14 12 10
14 11 10 10 9 9 9 9 9 9 9 9 11 11 11 11 11 10 10 11 11 13 14 12 11 11 15 16 15 14 13 13 13 14 14 14 12 9
14 9 9 9 10 10 11 11 10 10 10 10 11 11 11 11 12 11 10 11 12 12 13 13 13 13 11 9 11 12 11 12 13 14 13 13 11 9
9 8 9 9 10 10 10 11 11 11 11 10 11 11 11 11 11 11 11 11 11 12 12 12 11 11 13 14 9 6 10 13 13 13 12 12 11 10
7 8 9 10 10 10 11 11 11 11 11 11 11 11 11 11 11 11 11 12 12 13 12 11 10 10 11 11 11 12 13 12 11 12 11 11 9 10
9 9 9 10 10 11 11 11 12 12 12 11 11 12 11 11 11 11 11 16 14 11 12 12 12 16 12 9 10 11 10 11 13 11 11 10 10 8
9 10 10 11 11 11 11 11 11 12 12 11 11 11 11 11 12 13 12 11 11 11 12 12 12 11 8 9 12 13 12 12 12 14 12 12 9 9
10 10 11 11 11 10 10 12 14 12 12 11 11 11 11 11 11 11 11 11 10 11 11 11 10 9 9 9 10 11 14 13 11 10 9 16 19 17
Wind_Direction
288 287 285 286 284 284 285 288 294 299 302 303 300 303 300 296 295 293 292 293 295 295 295 295 295 294 294 293 291 289 287 284 281 279 276 273 270 268
292 292 294 291 291 288 285 285 283 287 291 297 302 301 303 296 294 294 293 295 292 291 292 292 293 293 293 291 290 288 286 284 281 278 276 273 270 268
292 294 296 298 295 292 290 287 285 286 289 296 299 302 301 300 299 297 295 294 292 293 294 294 294 293 292 291 290 288 286 284 282 279 277 275 273 270
299 299 298 300 296 295 293 290 289 288 290 296 299 301 301 302 300 299 298 295 293 295 295 295 293 292 291 290 289 287 286 284 282 280 278 276 273 272
298 299 300 301 300 299 298 293 291 290 289 292 297 299 299 301 303 301 300 298 298 296 296 294 292 292 291 291 290 288 287 285 283 281 278 275 273 271
295 294 296 298 301 302 298 296 295 296 294 292 294 299 300 303 304 305 305 304 301 300 294 292 293 294 292 290 289 287 285 284 282 280 277 274 271 268
297 295 294 297 297 297 296 298 300 296 295 294 296 300 302 306 306 308 305 304 300 298 298 299 298 294 292 289 287 285 284 284 282 280 277 273 270 267
300 301 300 297 298 300 300 299 294 292 294 296 297 297 300 302 306 305 303 303 303 304 302 299 297 292 290 289 289 290 289 288 286 283 279 275 271 267
301 302 302 301 304 301 299 296 293 291 290 292 293 293 297 301 302 301 299 298 297 300 300 295 296 293 293 291 293 292 292 290 287 284 281 277 273 269
300 302 303 303 304 305 302 299 296 295 293 292 289 290 291 293 294 295 296 294 290 288 291 293 297 296 298 296 294 292 290 289 288 286 284 281 277 272
302 300 300 299 303 306 305 303 302 299 298 295 290 288 289 292 293 293 293 294 295 296 295 287 293 302 298 290 289 292 294 293 291 289 286 283 280 276
304 302 300 304 308 310 309 306 304 306 307 302 297 294 292 291 291 285 286 289 294 296 293 297 298 308 301 287 294 299 298 295 294 293 291 288 284 278
305 305 305 310 310 311 311 304 302 306 302 300 299 298 297 295 296 295 291 284 284 280 287 299 293 294 286 294 299 296 293 295 299 296 294 291 287 281
305 306 307 310 312 312 310 304 306 306 299 298 298 298 300 302 302 300 294 284 273 274 279 282 278 281 285 289 294 297 299 298 296 294 293 293 290 283
305 306 308 310 313 310 305 307 308 302 299 298 296 297 300 299 298 296 294 289 284 276 271 268 267 273 275 281 286 293 299 301 295 298 300 298 293 287
311 308 308 308 307 303 305 306 302 296 298 295 296 297 298 298 296 297 298 302 299 297 287 275 271 274 278 280 282 287 292 293 301 305 304 300 295 287
315 307 307 310 311 311 310 307 305 304 303 299 297 298 299 299 299 300 297 297 292 296 303 304 294 283 275 276 280 282 290 297 303 308 310 306 302 297
317 307 309 311 310 311 311 310 309 307 305 302 298 296 297 298 299 300 297 295 294 295 298 304 308 307 302 282 251 273 291 302 308 311 311 311 308 309
312 308 307 306 305 305 304 303 303 304 304 299 295 295 295 295 295 297 298 296 295 297 299 303 305 308 314 316 300 273 298 307 310 313 315 315 311 315
312 307 304 303 303 302 301 301 301 302 301 298 296 294 293 293 294 295 296 297 298 300 302 304 306 310 309 301 297 298 299 304 313 315 316 314 308 312
311 307 303 301 300 299 299 298 298 297 297 297 294 293 293 292 292 292 293 296 298 299 303 306 304 306 299 287 291 301 309 313 313 314 319 320 324 329
308 306 303 300 299 298 298 297 297 296 296 294 293 293 292 291 290 292 293 296 299 299 302 303 305 309 306 303 309 311 317 322 322 320 325 340 338 335
306 304 301 300 298 297 297 296 296 294 294 293 292 292 292 292 291 290 293 295 297 302 307 310 314 315 312 309 311 316 324 330 332 334 338 343 346 348